Weather History for Florence, SC

Change the Weather History Date:

Thursday, August 1, 2013

  Actual Average Record
Temperature  
Mean Temperature 79 °F 81 °F  
Max Temperature 85 °F 91 °F 106 °F (1980)
Min Temperature 73 °F 71 °F 61 °F (1966)
Degree Days  
Heating Degree Days 0 0  
Month to date heating degree days 0 0  
Since 1 June heating degree days 0 1  
Since 1 July heating degree days 0 0  
Cooling Degree Days 14 16  
Month to date cooling degree days 14 16  
Year to date cooling degree days 1199 1222  
Since 1 June cooling degree days 932 915  
Growing Degree Days 28 (Base 50)    
Moisture  
Dew Point 73 °F    
Average Humidity 82    
Maximum Humidity 93    
Minimum Humidity 70    
Precipitation  
Precipitation 0.03 in 0.18 in 2.65 in (1965)
Month to date precipitation 0.03 0.18  
Year to date precipitation 42.05 25.42  
Sea Level Pressure  
Sea Level Pressure 29.96 in    
Wind  
Wind Speed 5 mph (SSW)    
Max Wind Speed 12 mph    
Max Gust Speed 15 mph    
Visibility 8 miles    
Events Rain    
T = Trace of Precipitation, MM = Missing Value Source: NWS Daily Summary

Daily Weather History Graph

Daily Weather History Graph

Search for Another Location

Airport:

Trip Planner

Search our weather history database for the weather conditions in past years. The results will help you decide how hot, cold, wet, or windy it might be!

Date:

Astronomy

Aug. 01, 2013 Rise Set
Actual Time 6:30 AM EDT 8:19 PM EDT
Civil Twilight 6:02 AM EDT 8:47 PM EDT
Nautical Twilight 5:29 AM EDT 9:20 PM EDT
Astronomical Twilight 4:54 AM EDT 9:55 PM EDT
Moon 2:06 AM EDT (8/1) 4:25 PM EDT (8/1)
Length of Visible Light 14h 44m
Length of Day
13h 49m
Waning Crescent, 23% of the Moon is Illuminated
Aug 1
Waning Crescent
Aug 6
New
Aug 14
First Quarter
Aug 20
Full
Aug 28
Last Quarter

Hourly Weather History & Observations

Time (EDT) Temp. Heat Index Dew Point Humidity Pressure Visibility Wind Dir Wind Speed Gust Speed Precip Events Conditions
12:16 AM 73.4 °F - 71.6 °F 94% 30.02 in 8.0 mi Calm Calm - N/A   Scattered Clouds
12:24 AM 73.4 °F - 71.6 °F 94% 30.02 in 8.0 mi Calm Calm - N/A   Mostly Cloudy
12:53 AM 73.9 °F - 72.0 °F 93% 30.01 in 9.0 mi Calm Calm - N/A   Overcast
1:40 AM 73.4 °F - 71.6 °F 94% 30.00 in 7.0 mi Calm Calm - N/A   Scattered Clouds
1:53 AM 73.9 °F - 72.0 °F 93% 29.99 in 6.0 mi Calm Calm - N/A   Mostly Cloudy
2:23 AM 73.4 °F - 71.6 °F 94% 29.99 in 5.0 mi SSE 4.6 mph - N/A   Mostly Cloudy
2:34 AM 73.4 °F - 71.6 °F 94% 29.99 in 5.0 mi SSE 3.5 mph - N/A   Mostly Cloudy
2:43 AM 73.4 °F - 71.6 °F 94% 29.98 in 6.0 mi South 4.6 mph - N/A   Overcast
2:48 AM 73.4 °F - 71.6 °F 94% 29.98 in 7.0 mi South 4.6 mph - N/A   Overcast
2:53 AM 73.0 °F - 72.0 °F 96% 29.98 in 7.0 mi South 4.6 mph - N/A   Overcast
3:53 AM 73.9 °F - 72.0 °F 93% 29.96 in 9.0 mi SW 4.6 mph - 0.00 in   Overcast
4:53 AM 73.9 °F - 71.1 °F 91% 29.95 in 8.0 mi WSW 4.6 mph - N/A   Overcast
5:04 AM 73.4 °F - 71.6 °F 94% 29.95 in 8.0 mi WSW 4.6 mph - N/A   Overcast
5:37 AM 73.4 °F - 71.6 °F 94% 29.95 in 7.0 mi WSW 4.6 mph - N/A   Overcast
5:53 AM 73.9 °F - 71.1 °F 91% 29.95 in 6.0 mi SW 3.5 mph - N/A   Overcast
6:44 AM 73.4 °F - 71.6 °F 94% 29.97 in 3.0 mi SSW 3.5 mph - N/A   Overcast
6:53 AM 73.9 °F - 72.0 °F 93% 29.96 in 3.0 mi South 3.5 mph - N/A   Overcast
7:36 AM 73.4 °F - 71.6 °F 94% 29.97 in 3.0 mi SW 3.5 mph - N/A   Overcast
7:53 AM 73.9 °F - 72.0 °F 93% 29.97 in 3.0 mi SW 3.5 mph - N/A   Mostly Cloudy
8:53 AM 75.0 °F - 72.0 °F 90% 29.98 in 9.0 mi SW 4.6 mph - N/A   Overcast
9:01 AM 75.2 °F - 71.6 °F 89% 29.98 in 7.0 mi WSW 5.8 mph - N/A   Overcast
9:53 AM 75.9 °F - 72.0 °F 87% 29.97 in 10.0 mi WSW 5.8 mph - N/A   Overcast
10:53 AM 77.0 °F - 73.0 °F 88% 29.96 in 10.0 mi SW 5.8 mph - 0.00 in   Overcast
11:45 AM 78.8 °F - 73.4 °F 83% 29.97 in 9.0 mi West 5.8 mph - N/A   Overcast
11:53 AM 80.1 °F 84.2 °F 73.0 °F 79% 29.96 in 10.0 mi WSW 3.5 mph - N/A   Overcast
12:53 PM 82.0 °F 87.4 °F 73.0 °F 74% 29.95 in 10.0 mi WSW 5.8 mph - N/A   Overcast
1:43 PM 78.8 °F - 73.4 °F 83% 29.96 in 2.0 mi WSW 3.5 mph - 0.03 in Rain Rain
1:53 PM 79.0 °F - 73.9 °F 84% 29.95 in 9.0 mi SSW 8.1 mph - 0.03 in   Overcast
2:53 PM 82.0 °F 87.9 °F 73.9 °F 76% 29.92 in 10.0 mi WSW 6.9 mph - 0.00 in   Overcast
3:00 PM 82.4 °F 88.2 °F 73.4 °F 74% 29.93 in 10.0 mi WSW 8.1 mph - N/A   Mostly Cloudy
3:53 PM 84.0 °F 91.2 °F 73.9 °F 72% 29.91 in 10.0 mi SSW 9.2 mph - N/A   Mostly Cloudy
4:53 PM 84.0 °F 91.2 °F 73.9 °F 72% 29.90 in 10.0 mi South 8.1 mph - N/A   Mostly Cloudy
5:00 PM 84.2 °F 92.3 °F 75.2 °F 74% 29.91 in 10.0 mi South 10.4 mph - N/A   Mostly Cloudy
5:53 PM 82.9 °F 89.4 °F 73.9 °F 74% 29.91 in 10.0 mi South 8.1 mph - N/A   Overcast
6:53 PM 81.0 °F 85.8 °F 73.0 °F 77% 29.91 in 10.0 mi South 9.2 mph - N/A   Clear
7:53 PM 80.1 °F 84.5 °F 73.9 °F 81% 29.94 in 10.0 mi SSW 5.8 mph - N/A   Clear
8:53 PM 78.1 °F - 73.9 °F 87% 29.94 in 10.0 mi South 3.5 mph - N/A   Partly Cloudy
9:53 PM 78.1 °F - 73.9 °F 87% 29.94 in 8.0 mi South 3.5 mph - N/A   Clear
10:53 PM 77.0 °F - 73.9 °F 90% 29.94 in 6.0 mi South 4.6 mph - N/A   Clear
11:53 PM 77.0 °F - 73.9 °F 90% 29.95 in 7.0 mi SSW 5.8 mph - N/A   Partly Cloudy